Time,TemperatureF,DewpointF,PressureIn,WindDirection,WindDirectionDegrees,WindSpeedMPH,WindSpeedGustMPH,Humidity,HourlyPrecipIn,Conditions,Clouds,dailyrainin,SoftwareType,DateUTC
2013-03-16 00:00:00,52.3,45.3,29.77,ESE,116,4.5,6.0,77,0.00,,,0.00,VWS V14.01,2013-03-16 04:00:00,
2013-03-16 00:05:00,52.5,45.5,29.77,WSW,248,3.0,6.0,77,0.00,,,0.00,VWS V14.01,2013-03-16 04:05:00,
2013-03-16 00:10:00,52.9,45.2,29.77,SSE,151,3.0,6.0,75,0.00,,,0.00,VWS V14.01,2013-03-16 04:10:00,
2013-03-16 00:15:00,53.4,45.7,29.76,SE,144,1.5,3.0,75,0.00,,,0.00,VWS V14.01,2013-03-16 04:15:00,
2013-03-16 00:20:00,53.5,45.8,29.76,ESE,103,1.5,1.5,75,0.00,,,0.00,VWS V14.01,2013-03-16 04:20:00,
2013-03-16 00:25:00,53.4,45.7,29.75,NE,41,1.5,1.5,75,0.00,,,0.00,VWS V14.01,2013-03-16 04:25:00,
2013-03-16 00:30:00,53.2,45.8,29.75,NE,41,1.5,1.5,76,0.00,,,0.00,VWS V14.01,2013-03-16 04:30:00,
2013-03-16 00:35:00,52.8,45.5,29.75,East,101,1.5,1.5,76,0.00,,,0.00,VWS V14.01,2013-03-16 04:35:00,
2013-03-16 00:40:00,53.0,46.0,29.75,SW,216,1.5,4.5,77,0.00,,,0.00,VWS V14.01,2013-03-16 04:40:00,
2013-03-16 00:45:00,53.6,46.2,29.74,SE,136,7.5,7.5,76,0.00,,,0.00,VWS V14.01,2013-03-16 04:45:00,
2013-03-16 00:50:00,54.1,46.4,29.74,SW,217,3.0,6.0,75,0.00,,,0.00,VWS V14.01,2013-03-16 04:50:00,
2013-03-16 00:55:00,54.5,46.8,29.74,South,191,4.5,6.0,75,0.00,,,0.00,VWS V14.01,2013-03-16 04:55:00,
2013-03-16 01:00:00,54.9,47.1,29.73,SSW,209,4.5,4.5,75,0.00,,,0.00,VWS V14.01,2013-03-16 05:00:00,
2013-03-16 01:05:00,55.1,47.0,29.72,SSW,194,4.5,4.5,74,0.00,,,0.00,VWS V14.01,2013-03-16 05:05:00,
2013-03-16 01:10:00,55.1,47.3,29.72,SSW,196,4.5,4.5,75,0.00,,,0.00,VWS V14.01,2013-03-16 05:10:00,
2013-03-16 01:15:00,55.2,47.4,29.72,SSW,198,6.0,6.0,75,0.00,,,0.00,VWS V14.01,2013-03-16 05:15:00,
2013-03-16 01:20:00,55.7,48.3,29.71,SW,222,9.0,10.5,76,0.00,,,0.00,VWS V14.01,2013-03-16 05:20:00,
2013-03-16 01:25:00,56.4,48.6,29.70,SW,230,6.0,7.5,75,0.00,,,0.00,VWS V14.01,2013-03-16 05:25:00,
2013-03-16 01:30:00,56.8,49.0,29.70,WSW,241,16.5,16.5,75,0.00,,,0.00,VWS V14.01,2013-03-16 05:30:00,
2013-03-16 01:35:00,57.1,48.9,29.70,WSW,246,13.5,13.5,74,0.00,,,0.00,VWS V14.01,2013-03-16 05:35:00,
2013-03-16 01:40:00,57.3,49.5,29.69,WSW,238,12.0,15.0,75,0.00,,,0.00,VWS V14.01,2013-03-16 05:40:00,
2013-03-16 01:45:00,57.4,49.5,29.69,SW,216,10.5,18.0,75,0.00,,,0.00,VWS V14.01,2013-03-16 05:45:00,
2013-03-16 01:50:00,57.6,49.8,29.69,SW,231,16.5,18.0,75,0.00,,,0.00,VWS V14.01,2013-03-16 05:50:00,
2013-03-16 01:55:00,58.0,50.1,29.68,SSW,195,3.0,16.5,75,0.00,,,0.00,VWS V14.01,2013-03-16 05:55:00,
2013-03-16 02:00:00,58.1,50.2,29.67,SW,224,10.5,16.5,75,0.00,,,0.00,VWS V14.01,2013-03-16 06:00:00,
2013-03-16 02:05:00,58.2,50.3,29.67,SSW,197,10.5,15.0,75,0.00,,,0.00,VWS V14.01,2013-03-16 06:05:00,
2013-03-16 02:10:00,58.2,50.3,29.67,SW,220,9.0,10.5,75,0.00,,,0.00,VWS V14.01,2013-03-16 06:10:00,
2013-03-16 02:15:00,58.2,50.7,29.67,SSW,206,9.0,13.5,76,0.00,,,0.00,VWS V14.01,2013-03-16 06:15:00,
2013-03-16 02:19:00,58.3,50.8,29.67,WSW,245,10.5,19.5,76,0.00,,,0.00,VWS V14.01,2013-03-16 06:19:00,
2013-03-16 02:24:00,58.4,50.9,29.67,SSW,210,13.5,16.5,76,0.00,,,0.00,VWS V14.01,2013-03-16 06:24:00,
2013-03-16 02:29:00,58.5,51.0,29.67,WSW,237,12.0,16.5,76,0.00,,,0.00,VWS V14.01,2013-03-16 06:29:00,
2013-03-16 02:34:00,58.7,51.2,29.67,SW,233,15.0,18.0,76,0.00,,,0.00,VWS V14.01,2013-03-16 06:34:00,
2013-03-16 02:39:00,58.9,51.4,29.67,West,261,7.5,16.5,76,0.00,,,0.00,VWS V14.01,2013-03-16 06:39:00,
2013-03-16 02:44:00,59.1,51.2,29.67,SW,216,9.0,12.0,75,0.00,,,0.00,VWS V14.01,2013-03-16 06:44:00,
2013-03-16 02:49:00,59.5,51.6,29.67,WSW,239,9.0,12.0,75,0.00,,,0.00,VWS V14.01,2013-03-16 06:49:00,
2013-03-16 02:54:00,59.8,51.5,29.66,SW,220,15.0,21.0,74,0.00,,,0.00,VWS V14.01,2013-03-16 06:54:00,
2013-03-16 02:59:00,60.3,51.6,29.67,SW,229,15.0,19.5,73,0.00,,,0.00,VWS V14.01,2013-03-16 06:59:00,
2013-03-16 03:04:00,60.7,52.0,29.66,WSW,241,25.5,25.5,73,0.00,,,0.00,VWS V14.01,2013-03-16 07:04:00,
2013-03-16 03:09:00,60.9,52.2,29.66,West,260,13.5,18.0,73,0.00,,,0.00,VWS V14.01,2013-03-16 07:09:00,
2013-03-16 03:14:00,61.1,52.0,29.66,WSW,246,18.0,24.0,72,0.00,,,0.00,VWS V14.01,2013-03-16 07:14:00,
2013-03-16 03:19:00,61.3,52.2,29.66,SW,233,13.5,24.0,72,0.00,,,0.00,VWS V14.01,2013-03-16 07:19:00,
2013-03-16 03:24:00,61.3,52.2,29.66,WSW,246,21.0,21.0,72,0.00,,,0.00,VWS V14.01,2013-03-16 07:24:00,
2013-03-16 03:29:00,61.3,52.2,29.67,SW,231,15.0,21.0,72,0.00,,,0.00,VWS V14.01,2013-03-16 07:29:00,
2013-03-16 03:34:00,61.2,52.1,29.66,WSW,253,12.0,15.0,72,0.00,,,0.00,VWS V14.01,2013-03-16 07:34:00,
2013-03-16 03:39:00,61.2,52.1,29.66,NW,316,7.5,16.5,72,0.00,,,0.00,VWS V14.01,2013-03-16 07:39:00,
2013-03-16 03:44:00,61.1,52.0,29.66,SW,220,13.5,21.0,72,0.00,,,0.00,VWS V14.01,2013-03-16 07:44:00,
2013-03-16 03:49:00,60.9,52.2,29.66,SW,229,10.5,13.5,73,0.00,,,0.00,VWS V14.01,2013-03-16 07:49:00,
2013-03-16 03:54:00,61.0,52.3,29.66,SW,228,10.5,19.5,73,0.00,,,0.00,VWS V14.01,2013-03-16 07:54:00,
2013-03-16 03:59:00,61.2,52.1,29.67,SW,231,12.0,13.5,72,0.00,,,0.00,VWS V14.01,2013-03-16 07:59:00,
2013-03-16 04:04:00,61.1,52.0,29.67,West,267,7.5,7.5,72,0.00,,,0.00,VWS V14.01,2013-03-16 08:04:00,
2013-03-16 04:09:00,61.1,52.4,29.67,West,276,10.5,13.5,73,0.00,,,0.00,VWS V14.01,2013-03-16 08:09:00,
2013-03-16 04:14:00,61.1,52.4,29.66,West,274,7.5,18.0,73,0.00,,,0.00,VWS V14.01,2013-03-16 08:14:00,
2013-03-16 04:19:00,61.1,52.4,29.66,West,272,6.0,15.0,73,0.00,,,0.00,VWS V14.01,2013-03-16 08:19:00,
2013-03-16 04:24:00,61.1,52.4,29.66,WSW,241,10.5,10.5,73,0.00,,,0.00,VWS V14.01,2013-03-16 08:24:00,
2013-03-16 04:29:00,61.1,52.4,29.66,WSW,237,7.5,10.5,73,0.00,,,0.00,VWS V14.01,2013-03-16 08:29:00,
2013-03-16 04:34:00,61.1,52.4,29.66,WSW,244,7.5,9.0,73,0.00,,,0.00,VWS V14.01,2013-03-16 08:34:00,
2013-03-16 04:39:00,61.1,52.4,29.66,West,260,9.0,9.0,73,0.00,,,0.00,VWS V14.01,2013-03-16 08:39:00,
2013-03-16 04:44:00,61.1,52.4,29.66,WSW,248,7.5,9.0,73,0.00,,,0.00,VWS V14.01,2013-03-16 08:44:00,
2013-03-16 04:49:00,61.0,52.3,29.66,WSW,246,4.5,7.5,73,0.00,,,0.00,VWS V14.01,2013-03-16 08:49:00,
2013-03-16 04:54:00,60.8,52.1,29.66,West,269,10.5,10.5,73,0.00,,,0.00,VWS V14.01,2013-03-16 08:54:00,
2013-03-16 04:59:00,60.9,52.2,29.66,West,265,12.0,12.0,73,0.00,,,0.00,VWS V14.01,2013-03-16 08:59:00,
2013-03-16 05:04:00,60.8,52.1,29.66,WSW,248,13.5,13.5,73,0.00,,,0.00,VWS V14.01,2013-03-16 09:04:00,
2013-03-16 05:09:00,60.7,52.4,29.66,WSW,246,6.0,12.0,74,0.00,,,0.00,VWS V14.01,2013-03-16 09:09:00,
2013-03-16 05:14:00,60.6,52.3,29.66,WSW,258,9.0,13.5,74,0.00,,,0.00,VWS V14.01,2013-03-16 09:14:00,
2013-03-16 05:19:00,60.5,52.2,29.66,WSW,240,10.5,10.5,74,0.00,,,0.00,VWS V14.01,2013-03-16 09:19:00,
2013-03-16 05:24:00,60.5,52.2,29.66,SW,236,9.0,10.5,74,0.00,,,0.00,VWS V14.01,2013-03-16 09:24:00,
2013-03-16 05:29:00,60.6,52.3,29.65,SW,226,12.0,16.5,74,0.00,,,0.00,VWS V14.01,2013-03-16 09:29:00,
2013-03-16 05:34:00,60.5,52.2,29.66,West,260,10.5,15.0,74,0.00,,,0.00,VWS V14.01,2013-03-16 09:34:00,
2013-03-16 05:39:00,60.4,52.1,29.65,WSW,255,12.0,13.5,74,0.00,,,0.00,VWS V14.01,2013-03-16 09:39:00,
2013-03-16 05:44:00,60.3,52.3,29.66,West,264,9.0,13.5,75,0.00,,,0.00,VWS V14.01,2013-03-16 09:44:00,
2013-03-16 05:49:00,60.3,52.3,29.66,SW,234,21.0,21.0,75,0.00,,,0.00,VWS V14.01,2013-03-16 09:49:00,
2013-03-16 05:54:00,60.4,52.5,29.65,SW,231,12.0,12.0,75,0.00,,,0.00,VWS V14.01,2013-03-16 09:54:00,
2013-03-16 05:59:00,60.5,52.5,29.65,West,268,10.5,13.5,75,0.00,,,0.00,VWS V14.01,2013-03-16 09:59:00,
2013-03-16 06:04:00,60.3,52.3,29.65,SW,226,12.0,12.0,75,0.00,,,0.00,VWS V14.01,2013-03-16 10:04:00,
2013-03-16 06:09:00,60.3,52.3,29.65,West,267,10.5,16.5,75,0.00,,,0.00,VWS V14.01,2013-03-16 10:09:00,
2013-03-16 06:14:00,60.3,52.3,29.65,SSW,210,16.5,18.0,75,0.00,,,0.00,VWS V14.01,2013-03-16 10:14:00,
2013-03-16 06:19:00,60.4,52.5,29.65,WSW,240,7.5,10.5,75,0.00,,,0.00,VWS V14.01,2013-03-16 10:19:00,
2013-03-16 06:24:00,60.5,52.5,29.65,WSW,243,13.5,15.0,75,0.00,,,0.00,VWS V14.01,2013-03-16 10:24:00,
2013-03-16 06:29:00,60.5,52.5,29.65,WSW,239,13.5,16.5,75,0.00,,,0.00,VWS V14.01,2013-03-16 10:29:00,
2013-03-16 06:34:00,60.5,52.5,29.65,WSW,248,13.5,16.5,75,0.00,,,0.00,VWS V14.01,2013-03-16 10:34:00,
2013-03-16 06:39:00,60.5,52.5,29.65,WSW,249,15.0,15.0,75,0.00,,,0.00,VWS V14.01,2013-03-16 10:39:00,
2013-03-16 06:44:00,60.4,52.5,29.65,WSW,248,13.5,18.0,75,0.00,,,0.00,VWS V14.01,2013-03-16 10:44:00,
2013-03-16 06:49:00,60.3,52.3,29.65,West,261,13.5,15.0,75,0.00,,,0.00,VWS V14.01,2013-03-16 10:49:00,
2013-03-16 06:54:00,60.3,52.3,29.65,WSW,250,13.5,16.5,75,0.00,,,0.00,VWS V14.01,2013-03-16 10:54:00,
2013-03-16 06:59:00,60.3,52.3,29.65,WSW,241,18.0,19.5,75,0.00,,,0.00,VWS V14.01,2013-03-16 10:59:00,
2013-03-16 07:04:00,60.4,52.5,29.65,West,271,9.0,10.5,75,0.00,,,0.00,VWS V14.01,2013-03-16 11:04:00,
2013-03-16 07:09:00,60.4,52.5,29.65,WSW,239,13.5,13.5,75,0.00,,,0.00,VWS V14.01,2013-03-16 11:09:00,
2013-03-16 07:14:00,60.3,52.3,29.65,WSW,253,12.0,12.0,75,0.00,,,0.00,VWS V14.01,2013-03-16 11:14:00,
2013-03-16 07:19:00,60.3,52.3,29.65,West,260,12.0,12.0,75,0.00,,,0.00,VWS V14.01,2013-03-16 11:19:00,
2013-03-16 07:24:00,60.3,52.3,29.65,WSW,254,15.0,15.0,75,0.00,,,0.00,VWS V14.01,2013-03-16 11:24:00,
2013-03-16 07:29:00,60.4,52.5,29.65,WSW,246,18.0,18.0,75,0.00,,,0.00,VWS V14.01,2013-03-16 11:29:00,
2013-03-16 07:34:00,60.3,52.3,29.65,WSW,251,10.5,13.5,75,0.00,,,0.00,VWS V14.01,2013-03-16 11:34:00,
2013-03-16 07:39:00,60.4,52.5,29.66,WSW,246,12.0,13.5,75,0.00,,,0.00,VWS V14.01,2013-03-16 11:39:00,
2013-03-16 07:44:00,60.3,52.3,29.66,SW,217,13.5,18.0,75,0.00,,,0.00,VWS V14.01,2013-03-16 11:44:00,
2013-03-16 07:49:00,60.2,52.3,29.66,SW,230,15.0,18.0,75,0.00,,,0.00,VWS V14.01,2013-03-16 11:49:00,
2013-03-16 07:54:00,60.1,52.2,29.66,SW,217,15.0,15.0,75,0.00,,,0.00,VWS V14.01,2013-03-16 11:54:00,
2013-03-16 07:59:00,60.1,52.2,29.66,West,269,10.5,12.0,75,0.00,,,0.00,VWS V14.01,2013-03-16 11:59:00,
2013-03-16 08:04:00,60.1,52.2,29.66,SW,231,10.5,13.5,75,0.00,,,0.00,VWS V14.01,2013-03-16 12:04:00,
2013-03-16 08:09:00,60.1,52.2,29.66,WSW,253,15.0,16.5,75,0.00,,,0.00,VWS V14.01,2013-03-16 12:09:00,
2013-03-16 08:14:00,60.1,52.2,29.66,WSW,251,6.0,10.5,75,0.00,,,0.00,VWS V14.01,2013-03-16 12:14:00,
2013-03-16 08:19:00,60.1,52.2,29.66,WSW,255,16.5,18.0,75,0.00,,,0.00,VWS V14.01,2013-03-16 12:19:00,
2013-03-16 08:24:00,60.1,52.2,29.66,WSW,246,16.5,16.5,75,0.00,,,0.00,VWS V14.01,2013-03-16 12:24:00,
2013-03-16 08:29:00,60.1,52.2,29.66,SW,216,13.5,16.5,75,0.00,,,0.00,VWS V14.01,2013-03-16 12:29:00,
2013-03-16 08:34:00,60.3,52.3,29.66,West,269,10.5,12.0,75,0.00,,,0.00,VWS V14.01,2013-03-16 12:34:00,
2013-03-16 08:39:00,60.5,52.2,29.66,WSW,248,10.5,16.5,74,0.00,,,0.00,VWS V14.01,2013-03-16 12:39:00,
2013-03-16 08:44:00,60.5,52.2,29.66,West,268,12.0,12.0,74,0.00,,,0.00,VWS V14.01,2013-03-16 12:44:00,
2013-03-16 08:49:00,60.6,52.3,29.66,WSW,258,9.0,12.0,74,0.00,,,0.00,VWS V14.01,2013-03-16 12:49:00,
2013-03-16 08:54:00,60.8,52.5,29.66,WSW,258,9.0,16.5,74,0.00,,,0.00,VWS V14.01,2013-03-16 12:54:00,
2013-03-16 08:59:00,60.9,52.2,29.66,WSW,249,10.5,16.5,73,0.00,,,0.00,VWS V14.01,2013-03-16 12:59:00,
2013-03-16 09:04:00,61.0,52.3,29.66,WSW,253,10.5,13.5,73,0.00,,,0.00,VWS V14.01,2013-03-16 13:04:00,
2013-03-16 09:09:00,61.1,52.4,29.66,WSW,240,13.5,13.5,73,0.00,,,0.00,VWS V14.01,2013-03-16 13:09:00,
2013-03-16 09:14:00,61.1,52.4,29.66,West,260,19.5,21.0,73,0.00,,,0.00,VWS V14.01,2013-03-16 13:14:00,
2013-03-16 09:19:00,61.4,52.3,29.65,WSW,243,13.5,13.5,72,0.00,,,0.00,VWS V14.01,2013-03-16 13:19:00,
2013-03-16 09:24:00,61.6,52.5,29.65,WSW,249,12.0,21.0,72,0.00,,,0.00,VWS V14.01,2013-03-16 13:24:00,
2013-03-16 09:29:00,61.7,52.6,29.66,WSW,242,13.5,16.5,72,0.00,,,0.00,VWS V14.01,2013-03-16 13:29:00,
2013-03-16 09:34:00,61.8,52.3,29.66,SW,236,13.5,19.5,71,0.00,,,0.00,VWS V14.01,2013-03-16 13:34:00,
2013-03-16 09:39:00,62.1,52.6,29.66,West,265,19.5,24.0,71,0.00,,,0.00,VWS V14.01,2013-03-16 13:39:00,
2013-03-16 09:44:00,62.4,52.9,29.66,SW,233,15.0,24.0,71,0.00,,,0.00,VWS V14.01,2013-03-16 13:44:00,
2013-03-16 09:49:00,62.6,52.7,29.66,West,260,10.5,19.5,70,0.00,,,0.00,VWS V14.01,2013-03-16 13:49:00,
2013-03-16 09:54:00,62.8,52.9,29.66,WSW,255,22.5,24.0,70,0.00,,,0.00,VWS V14.01,2013-03-16 13:54:00,
2013-03-16 09:59:00,62.9,53.0,29.66,West,259,9.0,16.5,70,0.00,,,0.00,VWS V14.01,2013-03-16 13:59:00,
2013-03-16 10:04:00,63.0,53.1,29.66,West,276,13.5,18.0,70,0.00,,,0.00,VWS V14.01,2013-03-16 14:04:00,
2013-03-16 10:09:00,63.3,53.0,29.66,WSW,248,13.5,18.0,69,0.00,,,0.00,VWS V14.01,2013-03-16 14:09:00,
2013-03-16 10:14:00,63.6,53.3,29.66,WSW,244,10.5,19.5,69,0.00,,,0.00,VWS V14.01,2013-03-16 14:14:00,
2013-03-16 10:18:00,64.0,53.2,29.65,WSW,251,10.5,22.5,68,0.00,,,0.00,VWS V14.01,2013-03-16 14:18:00,
2013-03-16 10:23:00,64.3,53.5,29.65,SW,223,12.0,28.5,68,0.00,,,0.00,VWS V14.01,2013-03-16 14:23:00,
2013-03-16 10:28:00,64.5,53.3,29.66,WNW,282,19.5,24.0,67,0.00,,,0.00,VWS V14.01,2013-03-16 14:28:00,
2013-03-16 10:33:00,64.8,53.6,29.65,West,262,28.5,33.0,67,0.00,,,0.00,VWS V14.01,2013-03-16 14:33:00,
2013-03-16 10:38:00,65.0,53.4,29.65,WSW,248,18.0,25.5,66,0.00,,,0.00,VWS V14.01,2013-03-16 14:38:00,
2013-03-16 10:43:00,65.3,53.7,29.65,SW,230,16.5,19.5,66,0.00,,,0.00,VWS V14.01,2013-03-16 14:43:00,
2013-03-16 10:48:00,65.7,54.0,29.65,WSW,250,13.5,18.0,66,0.00,,,0.00,VWS V14.01,2013-03-16 14:48:00,
2013-03-16 10:53:00,66.0,53.9,29.65,WSW,247,13.5,22.5,65,0.00,,,0.00,VWS V14.01,2013-03-16 14:53:00,
2013-03-16 10:58:00,66.1,54.0,29.65,SW,223,21.0,27.0,65,0.00,,,0.00,VWS V14.01,2013-03-16 14:58:00,
2013-03-16 11:03:00,66.2,53.7,29.65,WSW,246,24.0,28.5,64,0.00,,,0.00,VWS V14.01,2013-03-16 15:03:00,
2013-03-16 11:08:00,66.3,54.2,29.66,West,271,15.0,18.0,65,0.00,,,0.00,VWS V14.01,2013-03-16 15:08:00,
2013-03-16 11:13:00,66.5,54.0,29.65,WSW,251,30.0,30.0,64,0.00,,,0.00,VWS V14.01,2013-03-16 15:13:00,
2013-03-16 11:18:00,66.7,54.2,29.65,West,271,19.5,19.5,64,0.00,,,0.00,VWS V14.01,2013-03-16 15:18:00,
2013-03-16 11:23:00,67.0,54.4,29.65,SW,231,19.5,19.5,64,0.00,,,0.00,VWS V14.01,2013-03-16 15:23:00,
2013-03-16 11:28:00,67.2,53.8,29.66,WNW,303,18.0,31.5,62,0.00,,,0.00,VWS V14.01,2013-03-16 15:28:00,
2013-03-16 11:33:00,67.3,53.8,29.65,WNW,285,15.0,22.5,62,0.00,,,0.00,VWS V14.01,2013-03-16 15:33:00,
2013-03-16 11:38:00,67.6,54.1,29.65,West,269,16.5,24.0,62,0.00,,,0.00,VWS V14.01,2013-03-16 15:38:00,
2013-03-16 11:43:00,68.1,54.6,29.65,West,264,25.5,27.0,62,0.00,,,0.00,VWS V14.01,2013-03-16 15:43:00,
2013-03-16 11:48:00,68.3,54.8,29.65,SW,234,21.0,22.5,62,0.00,,,0.00,VWS V14.01,2013-03-16 15:48:00,
2013-03-16 11:53:00,68.4,54.4,29.65,WSW,241,19.5,24.0,61,0.00,,,0.00,VWS V14.01,2013-03-16 15:53:00,
2013-03-16 11:58:00,68.8,54.8,29.66,WNW,291,13.5,16.5,61,0.00,,,0.00,VWS V14.01,2013-03-16 15:58:00,
2013-03-16 12:03:00,69.2,55.2,29.66,WNW,291,21.0,21.0,61,0.00,,,0.00,VWS V14.01,2013-03-16 16:03:00,
2013-03-16 12:08:00,69.2,54.7,29.66,West,272,21.0,30.0,60,0.00,,,0.00,VWS V14.01,2013-03-16 16:08:00,
2013-03-16 12:13:00,69.5,55.5,29.66,WSW,248,15.0,15.0,61,0.00,,,0.00,VWS V14.01,2013-03-16 16:13:00,
2013-03-16 12:18:00,69.7,55.2,29.66,SW,215,19.5,22.5,60,0.00,,,0.00,VWS V14.01,2013-03-16 16:18:00,
2013-03-16 12:23:00,69.7,54.8,29.67,West,274,22.5,27.0,59,0.00,,,0.00,VWS V14.01,2013-03-16 16:23:00,
2013-03-16 12:28:00,69.5,54.6,29.67,WNW,285,18.0,33.0,59,0.00,,,0.00,VWS V14.01,2013-03-16 16:28:00,
2013-03-16 12:33:00,69.8,54.8,29.67,SW,220,16.5,31.5,59,0.00,,,0.00,VWS V14.01,2013-03-16 16:33:00,
2013-03-16 12:38:00,69.7,54.8,29.67,WNW,283,19.5,28.5,59,0.00,,,0.00,VWS V14.01,2013-03-16 16:38:00,
2013-03-16 12:43:00,69.7,54.8,29.67,West,259,22.5,24.0,59,0.00,,,0.00,VWS V14.01,2013-03-16 16:43:00,
2013-03-16 12:48:00,69.8,54.8,29.67,WSW,248,19.5,21.0,59,0.00,,,0.00,VWS V14.01,2013-03-16 16:48:00,
2013-03-16 12:53:00,70.3,55.3,29.68,WSW,257,16.5,19.5,59,0.00,,,0.00,VWS V14.01,2013-03-16 16:53:00,
2013-03-16 12:58:00,70.2,55.2,29.68,West,280,13.5,18.0,59,0.00,,,0.00,VWS V14.01,2013-03-16 16:58:00,
2013-03-16 13:03:00,70.1,55.6,29.68,West,266,12.0,16.5,60,0.00,,,0.00,VWS V14.01,2013-03-16 17:03:00,
2013-03-16 13:08:00,70.3,55.8,29.68,West,280,13.5,21.0,60,0.00,,,0.00,VWS V14.01,2013-03-16 17:08:00,
2013-03-16 13:13:00,70.1,55.1,29.69,West,261,12.0,24.0,59,0.00,,,0.00,VWS V14.01,2013-03-16 17:13:00,
2013-03-16 13:18:00,69.5,55.0,29.68,WNW,291,18.0,21.0,60,0.00,,,0.00,VWS V14.01,2013-03-16 17:18:00,
2013-03-16 13:23:00,69.2,54.7,29.69,NW,313,12.0,25.5,60,0.00,,,0.00,VWS V14.01,2013-03-16 17:23:00,
2013-03-16 13:28:00,69.0,55.0,29.69,West,278,16.5,16.5,61,0.00,,,0.00,VWS V14.01,2013-03-16 17:28:00,
2013-03-16 13:33:00,69.0,55.0,29.69,West,264,25.5,25.5,61,0.00,,,0.00,VWS V14.01,2013-03-16 17:33:00,
2013-03-16 13:38:00,69.0,55.5,29.70,NW,326,22.5,22.5,62,0.00,,,0.00,VWS V14.01,2013-03-16 17:38:00,
2013-03-16 13:43:00,69.6,55.6,29.70,West,274,21.0,28.5,61,0.00,,,0.00,VWS V14.01,2013-03-16 17:43:00,
2013-03-16 13:48:00,69.5,55.5,29.70,WNW,288,12.0,22.5,61,0.00,,,0.00,VWS V14.01,2013-03-16 17:48:00,
2013-03-16 13:53:00,69.8,55.8,29.69,SW,223,13.5,19.5,61,0.00,,,0.00,VWS V14.01,2013-03-16 17:53:00,
2013-03-16 13:58:00,70.2,55.7,29.69,West,276,19.5,27.0,60,0.00,,,0.00,VWS V14.01,2013-03-16 17:58:00,
2013-03-16 14:03:00,70.6,56.1,29.69,WNW,286,6.0,18.0,60,0.00,,,0.00,VWS V14.01,2013-03-16 18:03:00,
2013-03-16 14:08:00,70.5,55.5,29.70,WNW,303,19.5,24.0,59,0.00,,,0.00,VWS V14.01,2013-03-16 18:08:00,
2013-03-16 14:13:00,70.6,55.6,29.70,NW,324,16.5,18.0,59,0.00,,,0.00,VWS V14.01,2013-03-16 18:13:00,
2013-03-16 14:18:00,70.7,56.2,29.70,WNW,291,16.5,19.5,60,0.00,,,0.00,VWS V14.01,2013-03-16 18:18:00,
2013-03-16 14:23:00,70.6,55.6,29.70,WNW,299,10.5,18.0,59,0.00,,,0.00,VWS V14.01,2013-03-16 18:23:00,
2013-03-16 14:28:00,70.5,55.5,29.70,West,268,9.0,16.5,59,0.00,,,0.00,VWS V14.01,2013-03-16 18:28:00,
2013-03-16 14:33:00,70.2,55.2,29.70,NW,316,12.0,19.5,59,0.00,,,0.00,VWS V14.01,2013-03-16 18:33:00,
2013-03-16 14:38:00,70.2,55.7,29.70,West,278,12.0,16.5,60,0.00,,,0.00,VWS V14.01,2013-03-16 18:38:00,
2013-03-16 14:43:00,70.5,56.0,29.70,WNW,295,12.0,15.0,60,0.00,,,0.00,VWS V14.01,2013-03-16 18:43:00,
2013-03-16 14:48:00,70.7,54.7,29.70,West,267,18.0,27.0,57,0.00,,,0.00,VWS V14.01,2013-03-16 18:48:00,
2013-03-16 14:53:00,70.6,55.6,29.70,NW,324,19.5,24.0,59,0.00,,,0.00,VWS V14.01,2013-03-16 18:53:00,
2013-03-16 14:58:00,71.1,55.6,29.70,WNW,293,15.0,19.5,58,0.00,,,0.00,VWS V14.01,2013-03-16 18:58:00,
2013-03-16 15:03:00,71.0,55.5,29.70,WNW,299,9.0,15.0,58,0.00,,,0.00,VWS V14.01,2013-03-16 19:03:00,
2013-03-16 15:08:00,70.9,54.9,29.70,NW,324,13.5,18.0,57,0.00,,,0.00,VWS V14.01,2013-03-16 19:08:00,
2013-03-16 15:13:00,71.1,54.6,29.70,NNW,331,21.0,27.0,56,0.00,,,0.00,VWS V14.01,2013-03-16 19:13:00,
2013-03-16 15:18:00,71.0,55.5,29.70,WNW,287,7.5,12.0,58,0.00,,,0.00,VWS V14.01,2013-03-16 19:18:00,
2013-03-16 15:23:00,71.1,55.1,29.70,NW,310,15.0,18.0,57,0.00,,,0.00,VWS V14.01,2013-03-16 19:23:00,
2013-03-16 15:28:00,71.0,55.5,29.70,West,279,9.0,16.5,58,0.00,,,0.00,VWS V14.01,2013-03-16 19:28:00,
2013-03-16 15:33:00,71.3,55.8,29.70,West,271,13.5,13.5,58,0.00,,,0.00,VWS V14.01,2013-03-16 19:33:00,
2013-03-16 15:38:00,71.1,54.6,29.70,WNW,285,10.5,12.0,56,0.00,,,0.00,VWS V14.01,2013-03-16 19:38:00,
2013-03-16 15:43:00,70.2,54.8,29.70,NW,315,9.0,21.0,58,0.00,,,0.00,VWS V14.01,2013-03-16 19:43:00,
2013-03-16 15:48:00,70.2,53.8,29.71,WNW,282,12.0,24.0,56,0.00,,,0.00,VWS V14.01,2013-03-16 19:48:00,
2013-03-16 15:53:00,70.0,54.1,29.71,WNW,291,19.5,21.0,57,0.00,,,0.00,VWS V14.01,2013-03-16 19:53:00,
2013-03-16 15:58:00,69.9,54.0,29.71,West,281,15.0,18.0,57,0.00,,,0.00,VWS V14.01,2013-03-16 19:58:00,
2013-03-16 16:03:00,70.0,53.6,29.71,WNW,300,12.0,16.5,56,0.00,,,0.00,VWS V14.01,2013-03-16 20:03:00,
2013-03-16 16:08:00,70.2,53.3,29.71,NW,310,16.5,19.5,55,0.00,,,0.00,VWS V14.01,2013-03-16 20:08:00,
2013-03-16 16:13:00,70.1,53.7,29.72,NW,305,15.0,27.0,56,0.00,,,0.00,VWS V14.01,2013-03-16 20:13:00,
2013-03-16 16:18:00,70.1,53.7,29.72,NNW,331,21.0,21.0,56,0.00,,,0.00,VWS V14.01,2013-03-16 20:18:00,
2013-03-16 16:23:00,69.6,53.7,29.72,NNW,328,9.0,28.5,57,0.00,,,0.00,VWS V14.01,2013-03-16 20:23:00,
2013-03-16 16:28:00,68.9,54.5,29.72,NW,315,15.0,22.5,60,0.00,,,0.00,VWS V14.01,2013-03-16 20:28:00,
2013-03-16 16:33:00,68.3,54.8,29.72,NW,319,9.0,15.0,62,0.00,,,0.00,VWS V14.01,2013-03-16 20:33:00,
2013-03-16 16:38:00,68.5,55.0,29.73,NW,313,12.0,16.5,62,0.00,,,0.00,VWS V14.01,2013-03-16 20:38:00,
2013-03-16 16:43:00,68.8,56.1,29.73,NNW,327,7.5,9.0,64,0.00,,,0.00,VWS V14.01,2013-03-16 20:43:00,
2013-03-16 16:48:00,68.9,55.4,29.73,NNE,32,16.5,22.5,62,0.00,,,0.00,VWS V14.01,2013-03-16 20:48:00,
2013-03-16 16:53:00,68.1,54.6,29.73,NNW,347,10.5,13.5,62,0.00,,,0.00,VWS V14.01,2013-03-16 20:53:00,
2013-03-16 16:58:00,67.1,54.1,29.74,NNW,337,10.5,19.5,63,0.00,,,0.00,VWS V14.01,2013-03-16 20:58:00,
2013-03-16 17:03:00,66.1,53.2,29.74,North,3,12.0,15.0,63,0.00,,,0.00,VWS V14.01,2013-03-16 21:03:00,
2013-03-16 17:08:00,65.4,52.9,29.74,NNE,33,10.5,19.5,64,0.00,,,0.00,VWS V14.01,2013-03-16 21:08:00,
2013-03-16 17:13:00,65.4,53.3,29.75,North,2,15.0,15.0,65,0.00,,,0.00,VWS V14.01,2013-03-16 21:13:00,
2013-03-16 17:18:00,65.5,53.4,29.75,NNE,12,18.0,18.0,65,0.00,,,0.00,VWS V14.01,2013-03-16 21:18:00,
2013-03-16 17:23:00,65.6,53.1,29.75,NE,46,13.5,16.5,64,0.00,,,0.00,VWS V14.01,2013-03-16 21:23:00,
2013-03-16 17:28:00,65.5,53.0,29.75,NNW,334,9.0,16.5,64,0.00,,,0.00,VWS V14.01,2013-03-16 21:28:00,
2013-03-16 17:33:00,65.3,52.8,29.76,NNW,332,7.5,7.5,64,0.00,,,0.00,VWS V14.01,2013-03-16 21:33:00,
2013-03-16 17:38:00,65.1,53.1,29.76,North,350,7.5,16.5,65,0.00,,,0.00,VWS V14.01,2013-03-16 21:38:00,
2013-03-16 17:43:00,64.9,52.5,29.76,NNE,26,21.0,21.0,64,0.00,,,0.00,VWS V14.01,2013-03-16 21:43:00,
2013-03-16 17:48:00,65.0,52.5,29.76,NNE,28,15.0,15.0,64,0.00,,,0.00,VWS V14.01,2013-03-16 21:48:00,
2013-03-16 17:53:00,64.7,52.3,29.76,NW,321,7.5,12.0,64,0.00,,,0.00,VWS V14.01,2013-03-16 21:53:00,
2013-03-16 17:58:00,64.3,51.9,29.77,NNW,340,10.5,15.0,64,0.00,,,0.00,VWS V14.01,2013-03-16 21:58:00,
2013-03-16 18:03:00,63.9,51.9,29.77,North,356,16.5,18.0,65,0.00,,,0.00,VWS V14.01,2013-03-16 22:03:00,
2013-03-16 18:08:00,63.3,51.8,29.78,NNE,17,9.0,10.5,66,0.00,,,0.00,VWS V14.01,2013-03-16 22:08:00,
2013-03-16 18:13:00,63.0,51.5,29.78,NW,310,12.0,15.0,66,0.00,,,0.00,VWS V14.01,2013-03-16 22:13:00,
2013-03-16 18:18:00,62.6,51.1,29.79,NW,326,15.0,15.0,66,0.00,,,0.00,VWS V14.01,2013-03-16 22:18:00,
2013-03-16 18:23:00,62.2,50.7,29.80,West,279,4.5,18.0,66,0.00,,,0.00,VWS V14.01,2013-03-16 22:23:00,
2013-03-16 18:28:00,61.9,50.8,29.80,NW,321,6.0,7.5,67,0.00,,,0.00,VWS V14.01,2013-03-16 22:28:00,
2013-03-16 18:33:00,61.7,51.0,29.81,NNW,345,12.0,15.0,68,0.00,,,0.00,VWS V14.01,2013-03-16 22:33:00,
2013-03-16 18:38:00,60.8,50.6,29.82,NNE,21,10.5,10.5,69,0.00,,,0.00,VWS V14.01,2013-03-16 22:38:00,
2013-03-16 18:43:00,60.1,50.3,29.82,NNW,331,15.0,15.0,70,0.00,,,0.00,VWS V14.01,2013-03-16 22:43:00,
2013-03-16 18:48:00,59.5,49.7,29.82,NNW,341,13.5,19.5,70,0.00,,,0.00,VWS V14.01,2013-03-16 22:48:00,
2013-03-16 18:53:00,58.9,49.5,29.82,NNW,337,12.0,18.0,71,0.00,,,0.00,VWS V14.01,2013-03-16 22:53:00,
2013-03-16 18:58:00,58.0,49.0,29.83,North,2,16.5,18.0,72,0.00,,,0.00,VWS V14.01,2013-03-16 22:58:00,
2013-03-16 19:03:00,57.2,48.3,29.83,NNW,328,6.0,12.0,72,0.00,,,0.00,VWS V14.01,2013-03-16 23:03:00,
2013-03-16 19:08:00,56.5,48.0,29.83,ENE,63,9.0,13.5,73,0.00,,,0.00,VWS V14.01,2013-03-16 23:08:00,
2013-03-16 19:13:00,56.1,47.9,29.83,NNW,344,7.5,12.0,74,0.00,,,0.00,VWS V14.01,2013-03-16 23:13:00,
2013-03-16 19:18:00,55.7,47.5,29.83,NNE,30,10.5,16.5,74,0.00,,,0.00,VWS V14.01,2013-03-16 23:18:00,
2013-03-16 19:23:00,55.3,47.5,29.83,NNE,18,15.0,16.5,75,0.00,,,0.00,VWS V14.01,2013-03-16 23:23:00,
2013-03-16 19:28:00,54.9,47.1,29.83,NNE,14,7.5,7.5,75,0.00,,,0.00,VWS V14.01,2013-03-16 23:28:00,
2013-03-16 19:33:00,54.6,47.2,29.84,NW,321,7.5,10.5,76,0.00,,,0.00,VWS V14.01,2013-03-16 23:33:00,
2013-03-16 19:38:00,54.2,47.2,29.84,NNW,337,7.5,12.0,77,0.00,,,0.00,VWS V14.01,2013-03-16 23:38:00,
2013-03-16 19:43:00,53.8,46.8,29.83,NNW,342,7.5,9.0,77,0.00,,,0.00,VWS V14.01,2013-03-16 23:43:00,
2013-03-16 19:48:00,53.4,46.4,29.83,North,3,6.0,10.5,77,0.00,,,0.00,VWS V14.01,2013-03-16 23:48:00,
2013-03-16 19:53:00,53.1,46.4,29.83,NW,316,10.5,10.5,78,0.00,,,0.00,VWS V14.01,2013-03-16 23:53:00,
2013-03-16 19:58:00,52.8,46.1,29.83,NW,323,9.0,15.0,78,0.00,,,0.00,VWS V14.01,2013-03-16 23:58:00,
2013-03-16 20:03:00,52.6,46.0,29.83,NNE,24,9.0,16.5,78,0.00,,,0.00,VWS V14.01,2013-03-17 00:03:00,
2013-03-16 20:08:00,52.4,46.1,29.84,NNE,30,13.5,13.5,79,0.00,,,0.00,VWS V14.01,2013-03-17 00:08:00,
2013-03-16 20:13:00,52.1,46.1,29.84,NNW,343,13.5,18.0,80,0.00,,,0.00,VWS V14.01,2013-03-17 00:13:00,
2013-03-16 20:18:00,51.9,45.9,29.85,NNE,30,6.0,9.0,80,0.00,,,0.00,VWS V14.01,2013-03-17 00:18:00,
2013-03-16 20:23:00,51.5,45.9,29.85,NE,52,4.5,10.5,81,0.00,,,0.00,VWS V14.01,2013-03-17 00:23:00,
2013-03-16 20:28:00,51.2,45.6,29.85,NNE,33,9.0,15.0,81,0.00,,,0.00,VWS V14.01,2013-03-17 00:28:00,
2013-03-16 20:33:00,51.0,45.4,29.86,ENE,75,7.5,12.0,81,0.00,,,0.00,VWS V14.01,2013-03-17 00:33:00,
2013-03-16 20:38:00,50.7,45.1,29.86,East,101,6.0,16.5,81,0.00,,,0.00,VWS V14.01,2013-03-17 00:38:00,
2013-03-16 20:43:00,50.5,45.2,29.86,ENE,59,12.0,13.5,82,0.00,,,0.00,VWS V14.01,2013-03-17 00:43:00,
2013-03-16 20:48:00,50.4,45.1,29.87,NNE,17,6.0,7.5,82,0.00,,,0.00,VWS V14.01,2013-03-17 00:48:00,
2013-03-16 20:53:00,50.3,45.0,29.87,NNE,17,6.0,12.0,82,0.00,,,0.00,VWS V14.01,2013-03-17 00:53:00,
2013-03-16 20:58:00,50.1,44.8,29.87,NNW,341,4.5,7.5,82,0.00,,,0.00,VWS V14.01,2013-03-17 00:58:00,
2013-03-16 21:03:00,50.0,44.7,29.87,NE,37,4.5,6.0,82,0.00,,,0.00,VWS V14.01,2013-03-17 01:03:00,
2013-03-16 21:08:00,49.9,44.6,29.88,North,11,13.5,13.5,82,0.00,,,0.00,VWS V14.01,2013-03-17 01:08:00,
2013-03-16 21:13:00,49.9,44.6,29.88,North,4,9.0,9.0,82,0.00,,,0.00,VWS V14.01,2013-03-17 01:13:00,
2013-03-16 21:18:00,49.8,44.5,29.88,North,4,7.5,10.5,82,0.00,,,0.00,VWS V14.01,2013-03-17 01:18:00,
2013-03-16 21:23:00,49.6,44.3,29.89,NNW,348,12.0,12.0,82,0.00,,,0.00,VWS V14.01,2013-03-17 01:23:00,
2013-03-16 21:28:00,49.5,44.2,29.90,North,350,4.5,4.5,82,0.00,,,0.00,VWS V14.01,2013-03-17 01:28:00,
2013-03-16 21:33:00,49.5,44.6,29.90,NW,319,3.0,4.5,83,0.00,,,0.00,VWS V14.01,2013-03-17 01:33:00,
2013-03-16 21:38:00,49.4,44.5,29.91,NNW,346,4.5,6.0,83,0.00,,,0.00,VWS V14.01,2013-03-17 01:38:00,
2013-03-16 21:43:00,49.4,44.5,29.92,NNE,13,13.5,13.5,83,0.00,,,0.00,VWS V14.01,2013-03-17 01:43:00,
2013-03-16 21:48:00,49.3,44.4,29.92,NW,310,9.0,10.5,83,0.00,,,0.00,VWS V14.01,2013-03-17 01:48:00,
2013-03-16 21:53:00,49.3,44.4,29.93,NNW,338,4.5,9.0,83,0.00,,,0.00,VWS V14.01,2013-03-17 01:53:00,
2013-03-16 21:58:00,49.2,44.3,29.93,NNE,24,9.0,9.0,83,0.00,,,0.00,VWS V14.01,2013-03-17 01:58:00,
2013-03-16 22:03:00,49.0,44.4,29.94,NNW,344,9.0,9.0,84,0.00,,,0.00,VWS V14.01,2013-03-17 02:03:00,
2013-03-16 22:08:00,48.8,44.2,29.93,North,10,6.0,6.0,84,0.00,,,0.00,VWS V14.01,2013-03-17 02:08:00,
2013-03-16 22:13:00,48.5,44.2,29.93,North,9,6.0,9.0,85,0.00,,,0.00,VWS V14.01,2013-03-17 02:13:00,
2013-03-16 22:18:00,48.4,44.1,29.94,North,7,7.5,12.0,85,0.00,,,0.00,VWS V14.01,2013-03-17 02:18:00,
2013-03-16 22:23:00,48.2,44.2,29.94,NW,316,4.5,12.0,86,0.00,,,0.00,VWS V14.01,2013-03-17 02:23:00,
2013-03-16 22:28:00,48.0,44.0,29.94,NNE,29,6.0,10.5,86,0.00,,,0.00,VWS V14.01,2013-03-17 02:28:00,
2013-03-16 22:33:00,47.8,43.8,29.94,NNE,27,4.5,4.5,86,0.00,,,0.00,VWS V14.01,2013-03-17 02:33:00,
2013-03-16 22:38:00,47.7,43.7,29.94,North,11,6.0,10.5,86,0.00,,,0.00,VWS V14.01,2013-03-17 02:38:00,
2013-03-16 22:43:00,47.6,43.9,29.94,North,7,6.0,9.0,87,0.00,,,0.00,VWS V14.01,2013-03-17 02:43:00,
2013-03-16 22:48:00,47.5,43.8,29.94,North,9,4.5,4.5,87,0.00,,,0.00,VWS V14.01,2013-03-17 02:48:00,
2013-03-16 22:53:00,47.3,43.9,29.94,NNW,345,4.5,7.5,88,0.00,,,0.00,VWS V14.01,2013-03-17 02:53:00,
2013-03-16 22:58:00,47.1,43.7,29.94,NNE,21,6.0,6.0,88,0.00,,,0.00,VWS V14.01,2013-03-17 02:58:00,
2013-03-16 23:03:00,47.0,43.6,29.94,NNW,331,9.0,9.0,88,0.00,,,0.00,VWS V14.01,2013-03-17 03:03:00,
2013-03-16 23:08:00,46.9,43.5,29.94,North,10,3.0,4.5,88,0.00,,,0.00,VWS V14.01,2013-03-17 03:08:00,
2013-03-16 23:13:00,46.8,44.0,29.94,North,349,3.0,4.5,90,0.00,,,0.00,VWS V14.01,2013-03-17 03:13:00,
2013-03-16 23:18:00,46.6,43.8,29.94,North,7,3.0,4.5,90,0.00,,,0.00,VWS V14.01,2013-03-17 03:18:00,
2013-03-16 23:23:00,46.4,43.9,29.94,North,357,3.0,3.0,91,0.00,,,0.00,VWS V14.01,2013-03-17 03:23:00,
2013-03-16 23:28:00,46.2,44.0,29.94,NNE,18,6.0,6.0,92,0.00,,,0.00,VWS V14.01,2013-03-17 03:28:00,
2013-03-16 23:33:00,46.1,44.2,29.94,NNW,340,3.0,3.0,93,0.00,,,0.00,VWS V14.01,2013-03-17 03:33:00,
2013-03-16 23:38:00,45.9,44.0,29.94,North,360,1.5,1.5,93,0.00,,,0.00,VWS V14.01,2013-03-17 03:38:00,
2013-03-16 23:43:00,45.7,44.1,29.94,North,349,3.0,3.0,94,0.00,,,0.00,VWS V14.01,2013-03-17 03:43:00,
2013-03-16 23:48:00,45.6,44.0,29.94,North,352,1.5,1.5,94,0.00,,,0.00,VWS V14.01,2013-03-17 03:48:00,
2013-03-16 23:53:00,45.5,44.2,29.95,NW,306,3.0,3.0,95,0.01,,,0.01,VWS V14.01,2013-03-17 03:53:00,
2013-03-16 23:58:00,45.5,43.9,29.95,NNW,335,3.0,4.5,94,0.01,,,0.01,VWS V14.01,2013-03-17 03:58:00,